Flippin, AR

9:56 PM CST on February 13, 2016 (GMT -0600)
Marion County Regional

Weather History for KFLP - January, 2009

Change the Weather History Date:

Monday, January 19, 2009

  Actual Average Record
Temperature  
Mean Temperature 40 °F -  
Max Temperature 48 °F 45 °F 69 °F (2015)
Min Temperature 32 °F 25 °F 14 °F (2008)
Degree Days  
Heating Degree Days 25    
Moisture  
Dew Point 19 °F    
Average Humidity 50    
Maximum Humidity 57    
Minimum Humidity 43    
Precipitation  
Precipitation 0.00 in - - ()
Sea Level Pressure  
Sea Level Pressure 29.91 in    
Wind  
Wind Speed 12 mph (NNW)    
Max Wind Speed 23 mph    
Max Gust Speed 34 mph    
Visibility 10 miles    
Events      
Averages and records for this station are not official NWS values.
T = Trace of Precipitation, MM = Missing Value Source: NWS Daily Summary

Daily Weather History Graph

Daily Weather History Graph

Search for Another Location

Airport or City:

Trip Planner

Search our weather history database for the weather conditions in past years. The results will help you decide how hot, cold, wet, or windy it might be!

Date:

Astronomy

Jan. 19, 2009 Rise Set
Actual Time 7:19 AM CST 5:23 PM CST
Civil Twilight 6:51 AM CST 5:51 PM CST
Nautical Twilight 6:20 AM CST 6:22 PM CST
Astronomical Twilight 5:49 AM CST 6:53 PM CST
Moon 1:56 AM CST (1/19) 11:59 AM CST (1/19)
Length of Visible Light 10h 59m
Length of Day
10h 03m
Waning Crescent, 34% of the Moon is Illuminated
Jan 19
Waning Crescent
Jan 26
New
Feb 2
First Quarter
Feb 9
Full
Feb 16
Last Quarter

Hourly Weather History & Observations

Time (CST) Temp. Windchill Dew Point Humidity Pressure Visibility Wind Dir Wind Speed Gust Speed Precip Events Conditions
12:15 AM 44.6 °F 39.2 °F 26.6 °F 49% 29.74 in 10.0 mi West 10.4 mph - N/A   Clear
12:35 AM 48.2 °F - 26.6 °F 43% 29.74 in 10.0 mi West 13.8 mph 18.4 mph N/A   Clear
12:55 AM 46.4 °F 41.9 °F 26.6 °F 46% 29.74 in 10.0 mi WNW 9.2 mph - N/A   Clear
1:15 AM 46.4 °F 41.1 °F 26.6 °F 46% 29.76 in 10.0 mi NW 11.5 mph 21.9 mph N/A   Clear
1:35 AM 46.4 °F 40.1 °F 26.6 °F 46% 29.77 in 10.0 mi NW 15.0 mph 20.7 mph N/A   Clear
1:55 AM 44.6 °F 38.4 °F 26.6 °F 49% 29.78 in 10.0 mi NW 12.7 mph 16.1 mph N/A   Clear
2:15 AM 44.6 °F 38.4 °F 26.6 °F 49% 29.79 in 10.0 mi NNW 12.7 mph 18.4 mph N/A   Clear
2:35 AM 42.8 °F 35.8 °F 26.6 °F 53% 29.79 in 10.0 mi NW 13.8 mph - N/A   Clear
2:55 AM 41.0 °F 34.3 °F 26.6 °F 57% 29.80 in 10.0 mi North 11.5 mph 21.9 mph N/A   Partly Cloudy
3:15 AM 41.0 °F 32.5 °F 26.6 °F 57% 29.81 in 10.0 mi North 17.3 mph 21.9 mph N/A   Mostly Cloudy
3:35 AM 39.2 °F 33.0 °F 24.8 °F 56% 29.81 in 10.0 mi North 9.2 mph 20.7 mph N/A   Overcast
3:55 AM 39.2 °F 31.6 °F 24.8 °F 56% 29.82 in 10.0 mi North 12.7 mph 19.6 mph N/A   Overcast
4:15 AM 37.4 °F 26.9 °F 23.0 °F 56% 29.84 in 10.0 mi NNW 20.7 mph 29.9 mph N/A   Overcast
4:35 AM 37.4 °F 27.5 °F 19.4 °F 48% 29.85 in 10.0 mi NNW 18.4 mph 25.3 mph N/A   Mostly Cloudy
4:55 AM 35.6 °F 24.0 °F 19.4 °F 52% 29.86 in 10.0 mi North 23.0 mph 29.9 mph N/A   Overcast
5:15 AM 35.6 °F 24.8 °F 17.6 °F 48% 29.87 in 10.0 mi North 19.6 mph 28.8 mph N/A   Overcast
5:35 AM 35.6 °F 26.6 °F 17.6 °F 48% 29.88 in 10.0 mi NNW 13.8 mph 25.3 mph N/A   Overcast
5:55 AM 35.6 °F 24.0 °F 17.6 °F 48% 29.89 in 10.0 mi North 23.0 mph 34.5 mph N/A   Overcast
6:15 AM 35.6 °F 25.9 °F 17.6 °F 48% 29.90 in 10.0 mi North 16.1 mph 24.2 mph N/A   Overcast
6:35 AM 35.6 °F 24.8 °F 17.6 °F 48% 29.91 in 10.0 mi North 19.6 mph 26.5 mph N/A   Overcast
6:55 AM 35.6 °F 28.0 °F 15.8 °F 44% 29.91 in 10.0 mi North 10.4 mph 26.5 mph N/A   Overcast
7:35 AM 33.8 °F 25.3 °F 15.8 °F 48% 29.93 in 10.0 mi North 11.5 mph 24.2 mph N/A   Overcast
7:55 AM 33.8 °F 25.3 °F 17.6 °F 52% 29.94 in 10.0 mi North 11.5 mph - N/A   Overcast
8:15 AM 33.8 °F 24.8 °F 17.6 °F 52% 29.96 in 10.0 mi North 12.7 mph 19.6 mph N/A   Overcast
8:35 AM 33.8 °F 25.3 °F 19.4 °F 56% 29.96 in 10.0 mi North 11.5 mph 19.6 mph N/A   Overcast
8:55 AM 33.8 °F 23.5 °F 17.6 °F 52% 29.97 in 10.0 mi North 16.1 mph 20.7 mph N/A   Overcast
9:15 AM 33.8 °F 24.8 °F 19.4 °F 56% 29.98 in 10.0 mi North 12.7 mph 18.4 mph N/A   Mostly Cloudy
9:35 AM 35.6 °F 28.0 °F 17.6 °F 48% 29.98 in 10.0 mi North 10.4 mph 21.9 mph N/A   Mostly Cloudy
9:55 AM 33.8 °F 23.9 °F 15.8 °F 48% 29.98 in 10.0 mi North 15.0 mph 20.7 mph N/A   Overcast
10:15 AM 33.8 °F 25.8 °F 15.8 °F 48% 29.99 in 10.0 mi North 10.4 mph 21.9 mph N/A   Overcast
10:35 AM 35.6 °F 27.1 °F 15.8 °F 44% 29.98 in 10.0 mi NW 12.7 mph 17.3 mph N/A   Overcast
10:55 AM 35.6 °F 27.1 °F 15.8 °F 44% 29.98 in 10.0 mi North 12.7 mph 19.6 mph N/A   Overcast
11:15 AM 33.8 °F 25.3 °F 17.6 °F 52% 29.98 in 10.0 mi NNW 11.5 mph 19.6 mph N/A   Overcast
11:35 AM 33.8 °F 24.8 °F 19.4 °F 56% 29.98 in 10.0 mi NNW 12.7 mph 20.7 mph N/A   Overcast
11:55 AM 33.8 °F 24.3 °F 19.4 °F 56% 29.98 in 10.0 mi NW 13.8 mph - N/A   Overcast
12:15 PM 33.8 °F 23.5 °F 17.6 °F 52% 29.97 in 10.0 mi NW 16.1 mph 21.9 mph N/A   Overcast
12:35 PM 33.8 °F 25.3 °F 19.4 °F 56% 29.97 in 10.0 mi NNW 11.5 mph 17.3 mph N/A   Overcast
12:55 PM 33.8 °F 25.8 °F 19.4 °F 56% 29.97 in 10.0 mi NW 10.4 mph - N/A   Overcast
1:15 PM 33.8 °F 23.9 °F 17.6 °F 52% 29.96 in 10.0 mi WNW 15.0 mph 20.7 mph N/A   Overcast
1:35 PM 33.8 °F 26.4 °F 17.6 °F 52% 29.96 in 10.0 mi NNW 9.2 mph 21.9 mph N/A   Overcast
1:55 PM 33.8 °F 24.3 °F 17.6 °F 52% 29.96 in 10.0 mi NW 13.8 mph 19.6 mph N/A   Overcast
2:35 PM 35.6 °F 27.1 °F 17.6 °F 48% 29.95 in 10.0 mi NW 12.7 mph 17.3 mph N/A   Scattered Clouds
2:55 PM 35.6 °F 29.9 °F 17.6 °F 48% 29.94 in 10.0 mi NW 6.9 mph 16.1 mph N/A   Clear
3:15 PM 37.4 °F 29.8 °F 17.6 °F 45% 29.93 in 10.0 mi NNW 11.5 mph - N/A   Clear
3:35 PM 37.4 °F 29.8 °F 17.6 °F 45% 29.94 in 10.0 mi NW 11.5 mph 16.1 mph N/A   Clear
3:55 PM 37.4 °F 30.3 °F 17.6 °F 45% 29.94 in 10.0 mi WNW 10.4 mph - N/A   Clear
4:35 PM 35.6 °F 28.0 °F 15.8 °F 44% 29.94 in 10.0 mi NW 10.4 mph 17.3 mph N/A   Clear
4:55 PM 35.6 °F 29.2 °F 15.8 °F 44% 29.94 in 10.0 mi North 8.1 mph - N/A   Clear
5:15 PM 33.8 °F 27.7 °F 17.6 °F 52% 29.94 in 10.0 mi NW 6.9 mph - N/A   Mostly Cloudy
5:35 PM 33.8 °F 29.6 °F 17.6 °F 52% 29.94 in 10.0 mi NNW 4.6 mph - N/A   Overcast
5:55 PM 33.8 °F - 17.6 °F 52% 29.94 in 10.0 mi Calm Calm - N/A   Overcast
6:15 PM 33.8 °F - 17.6 °F 52% 29.95 in 10.0 mi Calm Calm - N/A   Overcast
6:35 PM 33.8 °F - 17.6 °F 52% 29.95 in 10.0 mi Calm Calm - N/A   Overcast
6:55 PM 33.8 °F 30.8 °F 17.6 °F 52% 29.94 in 10.0 mi West 3.5 mph - N/A   Overcast
7:15 PM 32.0 °F 25.6 °F 17.6 °F 55% 29.95 in 10.0 mi NW 6.9 mph - N/A   Mostly Cloudy
7:35 PM 33.8 °F 27.7 °F 17.6 °F 52% 29.96 in 10.0 mi WNW 6.9 mph - N/A   Overcast
7:55 PM 33.8 °F 28.6 °F 17.6 °F 52% 29.96 in 10.0 mi NW 5.8 mph - N/A   Overcast
8:15 PM 32.0 °F 26.4 °F 15.8 °F 51% 29.94 in 10.0 mi WNW 5.8 mph - N/A   Mostly Cloudy
8:35 PM 33.8 °F 28.6 °F 15.8 °F 48% 29.94 in 10.0 mi NW 5.8 mph - N/A   Overcast
8:55 PM 33.8 °F 28.6 °F 15.8 °F 48% 29.93 in 10.0 mi NW 5.8 mph - N/A   Overcast
9:15 PM 33.8 °F 28.6 °F 15.8 °F 48% 29.93 in 10.0 mi NW 5.8 mph - N/A   Overcast
9:35 PM 33.8 °F 28.6 °F 15.8 °F 48% 29.93 in 10.0 mi NW 5.8 mph - N/A   Overcast
9:55 PM 33.8 °F 28.6 °F 14.0 °F 44% 29.93 in 10.0 mi WNW 5.8 mph - N/A   Overcast
10:15 PM 33.8 °F 30.8 °F 15.8 °F 48% 29.93 in 10.0 mi NW 3.5 mph - N/A   Overcast
10:35 PM 33.8 °F 27.7 °F 15.8 °F 48% 29.93 in 10.0 mi NW 6.9 mph - N/A   Overcast
10:55 PM 33.8 °F 26.4 °F 15.8 °F 48% 29.93 in 10.0 mi NNW 9.2 mph - N/A   Overcast
11:15 PM 33.8 °F 27.0 °F 17.6 °F 52% 29.93 in 10.0 mi NNW 8.1 mph 17.3 mph N/A   Overcast
11:35 PM 33.8 °F 27.0 °F 17.6 °F 52% 29.94 in 10.0 mi NNW 8.1 mph - N/A   Overcast
11:55 PM 33.8 °F 26.4 °F 17.6 °F 52% 29.94 in 10.0 mi NNW 9.2 mph - N/A   Overcast